CW8078 Weather Reports


time (UTC)temp
F
wind
direction
speed
knots
gust
knots
rain 1hr
in
rain 24hr
in
rain mn
in
humidity
%
barometer
mb
20260510214303 67 315 0.0 1.7 0.00 0.01 0.00 40 1017.8
20260510213804 67 296 0.0 0.0 0.00 0.01 0.00 42 1018.0
20260510213303 67 330 0.0 2.6 0.00 0.01 0.00 43 1018.0
20260510211804 68 9 0.0 2.6 0.00 0.01 0.00 43 1018.0
20260510211304 68 287 0.0 0.0 0.00 0.01 0.00 40 1018.1
20260510210804 68 335 0.9 4.3 0.00 0.01 0.00 40 1018.1
20260510210303 68 271 0.0 1.7 0.00 0.01 0.00 37 1018.1
20260510204803 68 359 0.0 0.9 0.00 0.01 0.00 39 1018.2
20260510204303 68 238 0.0 0.0 0.00 0.01 0.00 35 1018.2
20260510203803 68 323 0.0 0.0 0.00 0.01 0.00 38 1018.2
20260510203303 68 311 0.0 4.3 0.00 0.01 0.00 41 1018.4
20260510201804 68 326 0.0 0.0 0.00 0.01 0.00 37 1018.5
20260510201303 68 0 0.0 0.0 0.00 0.01 0.00 43 1018.4
20260510200803 68 243 0.0 0.0 0.00 0.01 0.00 38 1018.5
20260510200303 68 271 0.0 2.6 0.00 0.01 0.00 42 1018.5
20260510194803 68 291 0.0 0.0 0.00 0.01 0.00 38 1018.4
20260510194303 68 274 0.9 2.6 0.00 0.01 0.00 38 1018.4
20260510193804 68 40 0.0 2.6 0.00 0.01 0.00 37 1018.3
20260510193304 68 2 0.0 6.1 0.00 0.01 0.00 42 1018.2
20260510191804 68 314 0.0 0.0 0.00 0.01 0.00 40 1018.3
20260510191304 69 319 0.0 1.7 0.00 0.01 0.00 42 1018.2
20260510190804 68 35 0.0 1.7 0.00 0.01 0.00 38 1018.3
20260510190304 69 301 0.9 4.3 0.00 0.01 0.00 37 1018.4
20260510184804 69 314 0.0 7.0 0.00 0.01 0.00 42 1018.2
20260510184304 68 336 0.0 2.6 0.00 0.01 0.00 47 1018.2
20260510183803 68 8 0.9 10.4 0.00 0.01 0.00 41 1018.1
20260510183304 68 335 0.0 7.8 0.00 0.01 0.00 38 1018.1
20260510181804 68 7 0.0 0.9 0.00 0.01 0.00 40 1018.0
20260510181303 67 266 0.9 10.4 0.00 0.01 0.00 43 1018.0
20260510174803 66 328 0.0 0.9 0.00 0.01 0.00 59 1018.4
20260510174303 64 39 0.0 0.0 0.00 0.01 0.00 51 1018.4
20260510173804 63 353 0.0 0.0 0.00 0.01 0.00 51 1018.4
20260510173304 62 289 0.0 1.7 0.00 0.01 0.00 55 1018.5
20260510171804 61 269 0.0 0.0 0.00 0.01 0.00 53 1018.5
20260510171303 62 268 0.0 0.9 0.00 0.01 0.00 52 1018.6
20260510170803 62 337 0.0 1.7 0.00 0.01 0.00 53 1018.6
20260510170303 62 295 0.0 0.0 0.00 0.01 0.00 50 1018.5
20260510164803 63 308 0.0 0.0 0.00 0.01 0.00 51 1018.5
20260510163804 63 297 0.0 0.9 0.00 0.01 0.00 54 1018.5
20260510163303 62 318 0.0 8.7 0.00 0.01 0.00 52 1018.5
20260510161804 60 285 0.0 1.7 0.00 0.01 0.00 57 1018.5
20260510160803 59 32 0.0 0.0 0.00 0.01 0.00 60 1018.4
20260510160303 59 6 0.0 0.0 0.00 0.01 0.00 58 1018.4
20260510154804 60 343 0.0 0.0 0.00 0.01 0.00 51 1018.4
20260510154303 61 334 0.0 0.9 0.00 0.01 0.00 54 1018.3
20260510153803 61 346 0.0 0.9 0.00 0.01 0.00 50 1018.3
20260510151803 60 334 0.0 0.0 0.00 0.01 0.00 53 1018.5
20260510151303 60 9 0.0 0.0 0.00 0.01 0.00 57 1018.5
20260510150803 60 346 0.0 0.0 0.00 0.01 0.00 54 1018.6
20260510144803 61 17 0.0 0.0 0.00 0.01 0.00 51 1018.2
20260510144304 61 44 0.0 0.0 0.00 0.01 0.00 52 1018.2
20260510143803 61 17 0.0 0.0 0.00 0.01 0.00 51 1018.1
20260510141802 60 351 0.0 0.9 0.00 0.01 0.00 53 1018.0
20260510141302 60 17 0.0 2.6 0.00 0.01 0.00 53 1017.9
20260510140802 59 355 0.0 0.9 0.00 0.01 0.00 57 1017.7
20260510140302 59 276 0.0 2.6 0.00 0.01 0.00 59 1017.5
20260510134803 59 4 0.9 7.0 0.00 0.01 0.00 53 1017.1
20260510134303 59 280 0.0 0.9 0.00 0.01 0.00 57 1017.0
20260510133803 58 24 0.0 7.0 0.00 0.01 0.00 52 1017.0
20260510133302 58 350 0.0 8.7 0.00 0.01 0.00 55 1017.0
20260510131802 57 350 0.0 2.6 0.00 0.01 0.00 57 1016.8
20260510131302 57 343 0.9 4.3 0.00 0.01 0.00 58 1016.4
20260510130802 57 356 0.0 0.0 0.00 0.01 0.00 60 1016.4
20260510130302 57 3 0.0 2.6 0.00 0.01 0.00 58 1016.2
20260510124802 56 299 0.0 0.0 0.00 0.01 0.00 62 1016.5
20260510123802 56 44 0.0 0.9 0.00 0.01 0.00 63 1016.4
20260510121802 56 321 0.0 1.7 0.00 0.01 0.00 60 1016.2
20260510121302 56 25 0.0 0.9 0.00 0.01 0.00 65 1016.2
20260510120802 55 29 0.0 0.9 0.00 0.01 0.00 62 1016.0
20260510120302 55 320 0.0 2.6 0.00 0.01 0.00 66 1015.7
20260510114802 56 333 0.0 2.6 0.00 0.01 0.00 65 1015.7
20260510114302 56 11 0.0 2.6 0.00 0.01 0.00 62 1015.6
20260510113802 56 289 0.0 0.0 0.00 0.01 0.00 62 1015.4
20260510113302 56 3 0.0 2.6 0.00 0.01 0.00 62 1015.1
20260510111302 56 17 0.0 0.9 0.00 0.01 0.00 62 1014.8
20260510110802 56 10 0.0 0.9 0.00 0.01 0.00 65 1014.8
20260510110302 56 8 0.0 0.0 0.00 0.01 0.00 63 1014.9
20260510104802 57 299 0.0 0.9 0.00 0.01 0.00 62 1014.6
20260510104303 57 308 0.0 0.9 0.00 0.01 0.00 67 1014.5
20260510103802 57 21 0.0 0.9 0.00 0.01 0.00 64 1014.2
20260510103302 57 339 0.0 2.6 0.00 0.01 0.00 61 1014.3
20260510101803 57 2 0.0 0.9 0.00 0.01 0.00 67 1013.9
20260510101302 57 333 0.0 2.6 0.00 0.01 0.00 64 1013.9
20260510100802 57 19 0.0 0.0 0.00 0.01 0.00 65 1013.8
20260510100302 57 345 0.0 4.3 0.00 0.01 0.00 67 1013.8
20260510094802 57 334 0.0 0.9 0.00 0.01 0.00 70 1013.5
20260510094302 57 4 0.0 0.0 0.00 0.01 0.00 74 1013.4
20260510093302 57 22 0.0 1.7 0.00 0.01 0.00 73 1013.0
20260510091802 57 25 0.0 0.0 0.00 0.01 0.00 77 1013.0
20260510091302 57 328 0.0 0.0 0.00 0.01 0.00 77 1013.0
20260510090803 57 7 0.0 1.7 0.00 0.01 0.00 76 1012.8
20260510090302 57 37 0.0 0.9 0.00 0.01 0.00 79 1012.9
20260510084302 57 27 0.0 0.0 0.00 0.01 0.00 85 1012.5
20260510083802 57 349 0.0 0.0 0.00 0.01 0.00 88 1012.4
20260510083302 57 8 0.0 0.0 0.00 0.01 0.00 88 1012.3
20260510081802 58 12 0.0 0.0 0.00 0.01 0.00 88 1012.0
20260510081302 58 341 0.0 0.0 0.00 0.01 0.00 89 1012.0
20260510080302 58 336 0.0 0.0 0.00 0.01 0.00 91 1012.1
20260510074302 59 302 0.0 0.0 0.00 0.01 0.00 92 1011.9
20260510073302 59 315 0.0 0.0 0.00 0.01 0.00 93 1011.8
20260510071803 60 316 0.0 0.0 0.00 0.01 0.00 92 1011.5
20260510070803 60 316 0.0 0.0 0.00 0.01 0.00 92 1011.6
20260510064802 60 316 0.0 0.0 0.00 0.01 0.00 92 1011.6
20260510064302 60 316 0.0 0.0 0.00 0.01 0.00 92 1011.5
20260510063803 60 316 0.0 0.0 0.00 0.01 0.00 92 1011.6
20260510063303 60 316 0.0 0.0 0.00 0.01 0.00 92 1011.4
20260510061803 60 316 0.0 0.0 0.00 0.01 0.00 91 1011.5
20260510061302 60 316 0.0 0.0 0.00 0.01 0.00 91 1011.3
20260510060803 61 316 0.0 0.0 0.00 0.01 0.00 91 1011.4
20260510054803 61 316 0.0 0.0 0.00 0.01 0.00 91 1011.4
20260510054303 61 316 0.0 0.0 0.00 0.01 0.00 91 1011.1
20260510053803 61 316 0.0 0.0 0.00 0.01 0.00 91 1010.9
20260510053303 61 5 0.0 0.0 0.00 0.01 0.00 91 1010.9
20260510051803 61 61 0.0 0.0 0.00 0.01 0.00 91 1010.9
20260510051302 61 13 0.0 0.0 0.00 0.01 0.00 91 1010.9
20260510050803 61 10 0.0 0.0 0.00 0.01 0.00 91 1010.9
20260510050303 61 333 0.0 0.0 0.00 0.01 0.00 91 1010.7
20260510044803 61 14 0.0 0.0 0.00 0.01 0.01 91 1010.3
20260510044303 61 29 0.0 0.0 0.00 0.01 0.01 91 1010.2
20260510043803 61 29 0.0 0.0 0.00 0.01 0.01 91 1010.0
20260510043303 61 29 0.0 0.0 0.00 0.01 0.01 91 1010.0
20260510041803 62 355 0.0 0.0 0.01 0.01 0.01 90 1009.8
20260510041303 62 355 0.0 0.0 0.01 0.01 0.01 90 1009.8
20260510040802 62 355 0.0 0.0 0.01 0.01 0.01 89 1009.8
20260510040302 62 355 0.0 0.0 0.01 0.01 0.01 89 1009.6
20260510034302 62 355 0.0 0.0 0.01 0.01 0.01 87 1009.4
20260510033802 62 10 0.0 0.0 0.01 0.01 0.01 87 1009.3
20260510033303 63 12 0.0 0.0 0.01 0.01 0.01 86 1009.5
20260510031802 64 32 0.0 0.0 0.00 0.00 0.00 81 1009.7
20260510031302 64 32 0.0 0.0 0.00 0.00 0.00 81 1009.3
20260510030802 64 32 0.0 0.0 0.00 0.00 0.00 81 1009.1
20260510030302 64 21 0.0 0.0 0.00 0.00 0.00 81 1008.9
20260510024803 64 15 0.0 0.0 0.00 0.00 0.00 80 1008.7
20260510023802 64 358 0.0 0.0 0.00 0.01 0.00 80 1008.7
20260510023302 64 330 0.0 4.3 0.00 0.01 0.00 79 1008.6
20260510021802 65 22 0.0 0.9 0.00 0.01 0.00 78 1008.3
20260510021302 65 342 0.0 0.9 0.00 0.01 0.00 78 1008.2
20260510020802 65 342 0.0 5.2 0.00 0.01 0.00 77 1008.0
20260510014802 68 348 0.0 7.0 0.00 0.03 0.00 69 1007.8
20260510014303 69 261 0.9 10.4 0.00 0.05 0.00 67 1008.0
20260510013803 70 306 0.0 2.6 0.00 0.07 0.00 68 1007.9
20260510013302 69 292 1.7 13.9 0.00 0.09 0.00 65 1007.6
20260510010803 71 166 0.0 0.0 0.00 0.18 0.00 65 1005.7
20260510010302 72 166 0.0 0.0 0.00 0.20 0.00 65 1005.6
20260510004802 73 166 0.0 0.0 0.00 0.26 0.00 60 1005.7
20260510003302 74 166 0.0 0.0 0.00 0.33 0.00 59 1005.7
20260510001302 75 166 0.0 0.0 0.00 0.48 0.00 57 1005.6
20260510000803 75 166 0.0 0.0 0.00 0.49 0.00 57 1005.6
20260510000304 75 166 0.0 0.0 0.00 0.49 0.00 55 1005.6
20260509234802 76 166 0.0 0.0 0.00 0.49 0.00 54 1005.6
20260509233802 77 166 0.0 0.0 0.00 0.49 0.00 53 1005.6
20260509233302 77 166 0.0 0.0 0.00 0.49 0.00 54 1005.6
20260509231802 77 166 0.0 0.0 0.00 0.49 0.00 51 1005.7
20260509231303 77 166 0.0 0.0 0.00 0.49 0.00 52 1005.7
20260509230803 77 166 0.0 0.0 0.00 0.49 0.00 48 1005.7
20260509230303 78 166 0.0 0.0 0.00 0.49 0.00 50 1005.7
20260509224302 78 166 0.0 0.0 0.00 0.51 0.00 48 1005.7
20260509223803 78 166 0.0 0.0 0.00 0.51 0.00 48 1005.7
20260509221803 78 171 0.0 1.7 0.00 0.51 0.00 48 1005.6
20260509221302 79 173 0.0 0.0 0.00 0.51 0.00 48 1005.6
20260509220803 79 171 0.0 0.0 0.00 0.51 0.00 47 1005.6
20260509220302 79 173 0.0 0.0 0.00 0.51 0.00 43 1005.7